User: anonymous   Login
Location: Unspecified
(0.0000°N, 0.0000°E)
Time: 22:43:35
(UTC+00:00)
Language:

deb r/b Ablestar - Orbit

View from above orbital plane
View from above orbital plane
View from above satellite
View from above satellite

Ground track
Ground track

The orbit data is extracted from the following two-line orbital elements,

1 00335U 61015DM  15241.66519351  .00000777  00000-0  42872-3 0  9990
2 00335 066.8423 111.8120 0046273 212.2805 147.5454 14.16188726768362
Epoch (UTC): 29 August 2015 15:57:52
Eccentricity: 0.0046273
inclination: 66.8423°
perigee height: 805 km
apogee height: 871 km
right ascension of ascending node: 111.8120°
argument of perigee: 212.2805°
revolutions per day: 14.16188726
mean anomaly at epoch: 147.5454°
orbit number at epoch: 76836

The dashed part of the orbit path shows where the satellite is in the earth's shadow,  

DLR